[[{"header":{"parameterUnit":"m.s-1","parameterCategory":1,"la1":30.2991,"la2":30.254,"lo1":-89.0895,"lo2":-89.0444,"dy":0.0017,"dx":0.0017,"nx":28,"ny":28,"refTime":"2023-10-22T21:00:00:Z","depth":0,"parameterNumber":2,"parameterNumberName":"U-component_of_WINDS"},"data":[0,0,0,0,0,0,0,0,0,0,0,0,0,0,0,0,0,0,0,0,0,0,0,0,0,0,0,0,0,0,0,0,0,0,0,0,0,0,0,0,0,0,0,0,0,0,0,0,0,0,0,0,0,0,0,0,0,0,-0.9994,-0.9994,0,-1.0022,-1.0022,-1.0022,-0.9976,-0.9975,-0.9973,-0.9972,-1.0003,-1.0005,-1.0008,0,0,0,0,0,0,0,0,0,0,0,0,0,-0.9904,-0.9906,-0.9994,-0.9994,-0.9995,-1.0022,-1.0022,-1.0022,-0.9976,-0.9975,-0.9973,-0.9971,-1.0002,-1.0005,-1.0008,0,0,0,0,0,0,0,0,0,0,0,0,0,-0.9939,-0.9907,-0.9994,-0.9975,-0.9973,-1.0022,-1.0022,-1.0023,-0.9977,-0.9975,-0.9972,-0.997,-1.0001,-1.0005,-1.0008,-1.0077,0,0,-1.0019,-1.002,0,0,0,0,0,0,0,0,-0.9937,-0.9942,-0.9977,-0.9976,-0.9975,-0.9993,-1.0002,-1.0041,-0.9977,-0.9976,-0.9972,-0.9969,-1.0002,-1.0005,-1.0016,-1.0079,-1.008,-1.0019,-1.0021,-1.0023,-1.0024,0,0,0,0,0,0,0,-0.9935,-0.9941,-1.0005,-0.9978,-0.9976,-0.9966,-0.9968,-1.0009,-1.0002,-0.9976,-0.9972,-0.9976,-1.0001,-1.0012,-1.0016,-1.008,-1.0019,-1.0022,-1.0024,-1.0026,-1.0203,-1.0205,0,0,0,0,0,0,-0.9934,-0.9939,-1.0004,-1.0006,-0.9949,-0.997,-0.9972,-0.999,-1.0001,-1.0001,-0.9978,-0.9974,-1.0008,-1.0012,-1.0017,-1.01,-1.0023,-1.0026,-1.0028,-1.02,-1.0203,-1.0206,0,0,0,0,0,0,-0.9932,-0.994,-1.0003,-0.9972,-0.9979,-0.9974,-0.9994,-0.9991,-1.0003,-1.0003,-1.0002,-0.9991,-1.0006,-1.0012,-1.0063,-1.01,-1.0028,-1.0031,-1.0197,-1.0201,-1.0205,-1.0265,0,0,0,0,0,0,-0.993,-0.994,-0.9965,-0.9972,-0.9981,-1.0048,-0.9996,-0.9994,-1.0009,-1.0004,-1.0015,-1.0015,-1.0005,-1.0058,-1.0066,-1.0104,-1.0033,-1.0194,-1.0199,-1.0204,-1.026,-1.0271,-1.028,0,0,0,0,0,-0.9927,-0.9982,-0.9967,-0.9975,-1.0012,-1.005,-1.0054,-1.0041,-1.0012,-1.0038,-1.0038,-1.0014,-1.0094,-1.0063,-1.0072,-1.0112,-1.0191,-1.0197,-1.0203,-1.0255,-1.0269,-1.028,0,0,0,0,0,0,-0.998,-0.9982,-0.9966,-1.0024,-1.0037,-1.0042,-1.0074,-1.0055,-1.0077,-1.0071,-1.0054,-1.0057,-1.0112,-1.0116,-1.0082,-1.0179,-1.0138,-1.0146,-1.0175,-1.0187,-1.0197,-1.0196,-1.0036,0,0,0,0,0,-0.9999,-1.0028,-1.0028,-1.008,-1.0087,-1.008,-1.0096,-1.0084,-1.0097,-1.0102,-1.0106,-1.012,-1.0149,-1.0168,-1.0194,-1.026,-1.0262,-1.0291,-1.0301,-1.0309,-1.0317,-1.0354,-1.0367,-1.0226,-1.0226,-1.0225,0,0,-1.0037,-1.0042,-1.0062,-1.0091,-1.0099,-1.0132,-1.0085,-1.012,-1.0144,-1.0108,-1.0156,-1.0159,-1.0174,-1.0233,-1.0259,-1.0239,-1.0356,-1.0317,-1.0323,-1.0327,-1.0361,-1.0375,-1.0386,-1.023,-1.0229,-1.0228,0,0,-1.0125,-1.013,-1.0175,-1.0184,-1.0197,-1.0192,-1.0202,-1.021,-1.0211,-1.0258,-1.0232,-1.0261,-1.0309,-1.0322,-1.0334,-1.0426,-1.0406,-1.0435,-1.0488,-1.0524,-1.0535,-1.0545,-1.058,-1.0592,-1.0442,-1.0442,-1.0442,0,-1.0172,-1.0218,-1.02,-1.0238,-1.0252,-1.0219,-1.0265,-1.0275,-1.0297,-1.0308,-1.0284,-1.0345,-1.0353,-1.0414,-1.0437,-1.0447,-1.046,-1.0434,-1.0535,-1.0544,-1.0553,-1.0586,-1.0599,-1.0446,-1.0446,-1.0445,-1.0445,0,-1.0276,-1.0308,-1.0342,-1.0363,-1.0381,-1.0423,-1.0412,-1.0433,-1.0419,-1.0417,-1.0467,-1.0474,-1.0502,-1.0515,-1.0503,-1.0576,-1.0563,-1.0537,-1.0496,-1.0571,-1.0601,-1.0614,-1.0451,-1.045,-1.0449,-1.0448,0,0,-1.0399,-1.0409,-1.0422,-1.0431,-1.0443,-1.0469,-1.0509,-1.0535,-1.0554,-1.0569,-1.0604,-1.0646,-1.0622,-1.0637,-1.0625,-1.0656,-1.0731,-1.0627,-1.0627,-1.0647,-1.0814,-1.0834,-1.0849,-1.0716,-1.0718,-1.072,-1.0813,0,-1.0487,-1.0556,-1.0541,-1.0609,-1.064,-1.0609,-1.0644,-1.0656,-1.0655,-1.0682,-1.068,-1.0711,-1.0677,-1.0685,-1.0715,-1.0715,-1.0764,-1.0708,-1.075,-1.0752,-1.0749,-1.0865,-1.0887,-1.0974,-1.0825,-1.0827,-1.0828,0,-1.0599,-1.0619,-1.069,-1.0697,-1.071,-1.0742,-1.0765,-1.079,-1.0803,-1.08,-1.0816,-1.0799,-1.084,-1.0797,-1.0854,-1.0817,-1.0833,-1.0836,-1.0839,-1.0844,-1.0796,-1.0875,-1.1001,-1.1015,-1.0846,-1.0845,-1.0843,0,-1.0684,-1.0728,-1.0776,-1.0785,-1.0795,-1.0818,-1.0824,-1.0834,-1.0851,-1.0871,-1.0883,-1.0908,-1.0922,-1.0942,-1.0933,-1.0902,-1.0993,-1.0948,-1.0993,-1.0994,-1.1015,-1.1015,-1.1148,-1.1023,-1.1022,-1.1022,-1.1022,0,-1.0785,-1.0831,-1.0815,-1.0845,-1.0895,-1.0878,-1.0928,-1.093,-1.094,-1.0971,-1.0945,-1.0975,-1.0959,-1.0988,-1.098,-1.103,-1.1037,-1.1036,-1.1034,-1.104,-1.104,-1.1052,-1.1046,-1.1026,-1.1025,-1.1024,-1.1024,0,-1.089,-1.0881,-1.0932,-1.0936,-1.0939,-1.0976,-1.098,-1.1009,-1.1005,-1.1045,-1.1053,-1.1048,-1.108,-1.1072,-1.1108,-1.1103,-1.1166,-1.1155,-1.1162,-1.116,-1.1206,-1.1203,-1.1353,-1.1373,-1.1233,-1.1234,-1.1235,0,-1.0956,-1.099,-1.0998,-1.1016,-1.1023,-1.1053,-1.107,-1.1054,-1.1073,-1.1091,-1.1118,-1.1148,-1.1172,-1.1225,-1.1226,-1.1253,-1.1244,-1.1295,-1.1248,-1.1253,-1.1247,-1.1246,-1.125,-1.1305,-1.1306,-1.1308,-1.1309,0,-1.1075,-1.1069,-1.1094,-1.1117,-1.1138,-1.1156,-1.1172,-1.1189,-1.1174,-1.1197,-1.1229,-1.1248,-1.1284,-1.1315,-1.134,-1.1346,-1.1326,-1.1323,-1.1335,-1.1342,-1.1346,-1.1346,-1.1189,-1.132,-1.1319,-1.1318,-1.1318,-1.1317,-1.1164,-1.1193,-1.1203,-1.1232,-1.1242,-1.1257,-1.1285,-1.1284,-1.1311,-1.1339,-1.1328,-1.1366,-1.1379,-1.141,-1.142,-1.145,-1.1431,-1.1448,-1.1453,-1.1458,-1.1465,-1.1339,-1.1454,-1.1454,-1.1454,-1.1453,-1.1453,0,-1.1283,-1.1288,-1.1314,-1.1337,-1.136,-1.1337,-1.1353,-1.1375,-1.1408,-1.1421,-1.1445,-1.1483,-1.1513,-1.1515,-1.1543,-1.1567,-1.1559,-1.1575,-1.1574,-1.1577,-1.1479,-1.1467,-1.1582,-1.1582,-1.1582,-1.1582,-1.1581,-1.1581,-1.1348,-1.1397,-1.1392,-1.1446,-1.145,-1.1487,-1.1498,-1.1513,-1.1523,-1.1567,-1.1591,-1.1592,-1.1601,-1.163,-1.1656,-1.1656,-1.1669,-1.169,-1.1686,-1.1596,-1.1583,-1.1571,-1.1559,-1.1692,-1.1692,-1.1782,-1.1782,-1.1783]},{"header":{"parameterUnit":"m.s-1","parameterCategory":1,"la1":30.2991,"la2":30.254,"lo1":-89.0895,"lo2":-89.0444,"dy":0.0017,"dx":0.0017,"nx":28,"ny":28,"refTime":"2023-10-22T21:00:00:Z","depth":0,"parameterNumber":3,"parameterNumberName":"V-component_of_WINDS"},"data":[0,0,0,0,0,0,0,0,0,0,0,0,0,0,0,0,0,0,0,0,0,0,0,0,0,0,0,0,0,0,0,0,0,0,0,0,0,0,0,0,0,0,0,0,0,0,0,0,0,0,0,0,0,0,0,0,0,0,-0.9736,-0.9736,0,-0.9761,-0.9761,-0.9761,-0.9751,-0.975,-0.975,-0.9749,-0.9774,-0.9775,-0.9777,0,0,0,0,0,0,0,0,0,0,0,0,0,-0.9678,-0.9679,-0.9736,-0.9736,-0.9736,-0.9761,-0.9761,-0.9761,-0.9751,-0.975,-0.9749,-0.9749,-0.9774,-0.9775,-0.9777,0,0,0,0,0,0,0,0,0,0,0,0,0,-0.9703,-0.9679,-0.9736,-0.9734,-0.9734,-0.9761,-0.9761,-0.9762,-0.9751,-0.975,-0.9749,-0.9748,-0.9773,-0.9775,-0.9777,-0.9806,0,0,-0.9783,-0.9783,0,0,0,0,0,0,0,0,-0.9702,-0.9705,-0.9734,-0.9734,-0.9734,-0.9752,-0.975,-0.9777,-0.9751,-0.9745,-0.9749,-0.9748,-0.9767,-0.977,-0.9776,-0.9808,-0.9809,-0.9783,-0.9784,-0.9785,-0.9785,0,0,0,0,0,0,0,-0.97,-0.9704,-0.9746,-0.9734,-0.9735,-0.9732,-0.9734,-0.9755,-0.9761,-0.9745,-0.9744,-0.9748,-0.9767,-0.9775,-0.9777,-0.9809,-0.9783,-0.9784,-0.9786,-0.9786,-0.9866,-0.9867,0,0,0,0,0,0,-0.9698,-0.9703,-0.9745,-0.9746,-0.9715,-0.9734,-0.9737,-0.9747,-0.9761,-0.9762,-0.9748,-0.9747,-0.9772,-0.9775,-0.9778,-0.9813,-0.9785,-0.9786,-0.9787,-0.9865,-0.9866,-0.9867,0,0,0,0,0,0,-0.9697,-0.9702,-0.9744,-0.9724,-0.9729,-0.9736,-0.9748,-0.9748,-0.9755,-0.9763,-0.9764,-0.9755,-0.9771,-0.9775,-0.98,-0.9814,-0.9787,-0.9789,-0.9864,-0.9865,-0.9867,-0.9885,0,0,0,0,0,0,-0.9695,-0.9702,-0.9713,-0.9725,-0.9731,-0.9765,-0.9748,-0.9749,-0.9759,-0.9757,-0.9769,-0.977,-0.9771,-0.9797,-0.9801,-0.9816,-0.979,-0.9863,-0.9865,-0.9866,-0.9883,-0.9887,-0.989,0,0,0,0,0,-0.9693,-0.9717,-0.9714,-0.9719,-0.9745,-0.9766,-0.9769,-0.977,-0.976,-0.9771,-0.9776,-0.977,-0.9812,-0.9799,-0.9804,-0.982,-0.9862,-0.9864,-0.9866,-0.9881,-0.9886,-0.989,0,0,0,0,0,0,-0.9707,-0.9718,-0.9715,-0.9743,-0.9754,-0.9764,-0.9779,-0.9775,-0.9788,-0.9786,-0.9786,-0.9789,-0.9814,-0.9819,-0.9805,-0.9849,-0.9835,-0.9839,-0.9845,-0.985,-0.9853,-0.9851,-0.9792,0,0,0,0,0,-0.9713,-0.9729,-0.9739,-0.9762,-0.9768,-0.9773,-0.9782,-0.9781,-0.9792,-0.9797,-0.9803,-0.9814,-0.983,-0.984,-0.9855,-0.9884,-0.9886,-0.9897,-0.99,-0.9903,-0.9906,-0.9922,-0.9927,-0.9875,-0.9875,-0.9875,0,0,-0.9726,-0.9734,-0.9745,-0.9765,-0.9773,-0.979,-0.9776,-0.9795,-0.9807,-0.9799,-0.9823,-0.9828,-0.984,-0.9867,-0.9879,-0.9872,-0.9921,-0.9906,-0.9909,-0.991,-0.9925,-0.993,-0.9935,-0.9876,-0.9876,-0.9876,0,0,-0.9758,-0.9766,-0.9787,-0.9795,-0.9808,-0.9811,-0.9816,-0.9828,-0.9831,-0.9855,-0.9849,-0.9864,-0.9891,-0.9899,-0.9907,-0.9944,-0.9938,-0.9948,-0.9967,-0.9983,-0.9987,-0.999,-1.0003,-1.0008,-0.9951,-0.9951,-0.9951,0,-0.9772,-0.9798,-0.9798,-0.9817,-0.9827,-0.982,-0.9841,-0.985,-0.9866,-0.9873,-0.9865,-0.9899,-0.9906,-0.9936,-0.9944,-0.9951,-0.9957,-0.9947,-0.9986,-0.999,-0.9993,-1.0006,-1.0011,-0.9952,-0.9952,-0.9952,-0.9952,0,-0.9815,-0.9833,-0.9848,-0.9865,-0.9876,-0.9896,-0.9899,-0.991,-0.9909,-0.9913,-0.9937,-0.9946,-0.9962,-0.9969,-0.9968,-0.9998,-0.9994,-0.9986,-0.9972,-0.9999,-1.0011,-1.0016,-0.9954,-0.9954,-0.9953,-0.9953,0,0,-0.9856,-0.9873,-0.9879,-0.9886,-0.99,-0.9914,-0.9934,-0.995,-0.996,-0.9972,-0.9988,-1.0011,-1.0004,-1.0013,-1.0013,-1.0027,-1.0055,-1.0017,-1.0018,-1.0024,-1.0089,-1.0095,-1.0101,-1.0052,-1.0053,-1.0053,-1.0089,0,-0.989,-0.9925,-0.9925,-0.9957,-0.9974,-0.9968,-0.9986,-0.9996,-1.0,-1.0014,-1.0019,-1.0035,-1.0025,-1.003,-1.0044,-1.0049,-1.0068,-1.0046,-1.0067,-1.0068,-1.0065,-1.0107,-1.0113,-1.0146,-1.0093,-1.0094,-1.0094,0,-0.9933,-0.9947,-0.9981,-0.9992,-0.9999,-1.0015,-1.003,-1.0044,-1.0056,-1.0058,-1.0068,-1.0066,-1.0086,-1.0071,-1.0099,-1.0084,-1.0093,-1.0096,-1.0098,-1.01,-1.0083,-1.011,-1.0156,-1.0161,-1.0102,-1.0101,-1.0101,0,-0.996,-0.9987,-1.0011,-1.0017,-1.0032,-1.0043,-1.0049,-1.006,-1.007,-1.0083,-1.009,-1.0105,-1.0113,-1.0125,-1.0127,-1.0116,-1.0155,-1.0141,-1.0158,-1.0158,-1.0166,-1.0166,-1.0214,-1.0172,-1.0171,-1.0171,-1.0171,0,-0.9998,-1.0018,-1.0023,-1.0038,-1.0061,-1.0062,-1.0085,-1.009,-1.01,-1.0115,-1.0111,-1.0126,-1.0127,-1.0143,-1.0144,-1.0167,-1.0171,-1.0173,-1.0173,-1.0174,-1.0173,-1.0179,-1.0177,-1.0173,-1.0172,-1.0172,-1.0172,0,-1.0032,-1.0035,-1.0061,-1.0072,-1.0076,-1.0093,-1.0102,-1.0116,-1.012,-1.014,-1.0144,-1.015,-1.0168,-1.0171,-1.0191,-1.0192,-1.022,-1.0218,-1.0216,-1.0216,-1.0233,-1.0232,-1.0288,-1.0295,-1.0247,-1.0248,-1.0248,0,-1.0055,-1.0071,-1.0085,-1.0095,-1.0102,-1.0118,-1.0129,-1.013,-1.0141,-1.0155,-1.0168,-1.0185,-1.0199,-1.0227,-1.0233,-1.0249,-1.0247,-1.0266,-1.025,-1.025,-1.0248,-1.0247,-1.0249,-1.0269,-1.027,-1.027,-1.027,0,-1.0097,-1.0098,-1.0113,-1.0129,-1.0142,-1.0154,-1.0166,-1.0175,-1.0178,-1.019,-1.0208,-1.0219,-1.024,-1.0257,-1.0273,-1.028,-1.0276,-1.0275,-1.028,-1.0281,-1.0279,-1.0281,-1.0225,-1.0274,-1.0274,-1.0273,-1.0273,-1.0273,-1.0127,-1.0141,-1.0152,-1.0169,-1.0179,-1.019,-1.0204,-1.0209,-1.0224,-1.0242,-1.0242,-1.0262,-1.0273,-1.0294,-1.0302,-1.0317,-1.0311,-1.0318,-1.032,-1.0322,-1.0323,-1.0277,-1.032,-1.032,-1.032,-1.032,-1.032,0,-1.0168,-1.0176,-1.0191,-1.0208,-1.0222,-1.0217,-1.023,-1.0241,-1.0259,-1.027,-1.0284,-1.0305,-1.0322,-1.0329,-1.0346,-1.0357,-1.0355,-1.0361,-1.036,-1.0362,-1.0328,-1.0322,-1.0362,-1.0362,-1.0362,-1.0362,-1.0362,-1.0362,-1.0192,-1.0215,-1.0218,-1.0246,-1.0253,-1.0273,-1.0281,-1.0291,-1.03,-1.0324,-1.0338,-1.0343,-1.0352,-1.037,-1.0385,-1.0386,-1.0393,-1.0399,-1.04,-1.0368,-1.0364,-1.036,-1.0355,-1.0401,-1.0401,-1.0433,-1.0434,-1.0434]}]]